Simultaneous Nadir Overpasses (SNOs) Predictions

Prediction of SNOs between AQUA and METOP-B Satellite Orbit:

Table of predicted SNOs for the next 14.0 days since TLE Epoch: 6/20/2015
Index Date (AQUA) Time (AQUA) Lat,Lon (AQUA) SZA (AQUA ) Date (METOP-B) Time (METOP-B) Lat,Lon (METOP-B) SZA (METOP-B ) Distance(km) Time Diff (sec)
1 06/21/2015 11:24:24 -73.74,-176.51 129.69 06/21/2015 11:23:44 -73.71,-176.55 129.71 2.64 40
2 06/21/2015 12:13:53 73.80, -9.01 50.38 06/21/2015 12:14:22 73.82, -8.97 50.39 2.33 29
3 06/24/2015 06:58:36 -73.74,-110.06 129.67 06/24/2015 06:58:05 -73.76,-110.04 129.64 2.50 31
4 06/24/2015 07:48:05 73.80, 57.42 50.41 06/24/2015 07:48:44 73.81, 57.41 50.41 0.61 39
5 06/27/2015 02:32:49 -73.76, -43.67 129.56 06/27/2015 02:32:28 -73.74, -43.67 129.57 1.57 21
6 06/27/2015 03:22:18 73.83, 123.81 50.52 06/27/2015 03:23:06 73.84, 123.89 50.52 2.71 48
7 06/29/2015 21:17:27 73.30,-143.90 50.09 06/29/2015 21:16:18 73.29,-145.64 50.16 55.43 69
8 06/29/2015 22:07:01 -73.75, 22.79 129.43 06/29/2015 22:06:50 -73.77, 22.81 129.40 2.56 11
9 06/29/2015 22:56:30 73.83,-169.74 50.66 06/29/2015 22:57:29 73.82,-169.76 50.64 1.32 59
10 07/02/2015 16:51:45 73.69, -78.27 50.70 07/02/2015 16:50:32 73.66, -78.38 50.68 4.97 73
11 07/02/2015 17:41:12 -73.77, 89.20 129.22 07/02/2015 17:41:12 -73.75, 89.16 129.24 2.57 0




NCC Satellite Simultaneous Nadir Overpasses (SNOs) Prediction Service
